Regional Weather Roundup
Issued by NWS Burlington, VT

Current Version | Previous Version | Graphics & Text | Print | Product List | Glossary On
Versions: 1 2 3 4 5 6 7 8 9 10 11 12 13 14 15 16 17 18 19 20 21 22 23 24 25 26 27 28 29 30 31 32 33 34 35 36 37 38 39 40 41 42 43 44 45 46 47 48 49 50
000
ASUS41 KBTV 230910
RWRBTV
VERMONT REGIONAL WEATHER ROUNDUP
NATIONAL WEATHER SERVICE BURLINGTON VT
400 AM EST THU JAN 23 2020

NOTE: "FAIR" INDICATES FEW OR NO CLOUDS BELOW 12,000 FEET WITH NO
SIGNIFICANT WEATHER AND/OR OBSTRUCTIONS TO VISIBILITY.

* THESE REPORTS ARE NOT UNDER NWS QUALITY CONTROL AND/OR DO NOT
  REPORT WEATHER SUCH AS PRECIPITATION AND FOG.

VTZ001>019-231000-
_____VERMONT_____


CITY           SKY/WX    TMP DP  RH WIND       PRES   REMARKS
BURLINGTON     FAIR      29  15  56 S6        30.31S WCI  23
MONTPELIER     FAIR      11   9  92 CALM      30.30F
MORRISVILLE    FAIR       3  -1  83 CALM      30.30F
ST. JOHNSBURY*   N/A      6   3  87 MISG      30.30F
LYNDONVILLE*   FAIR      13  11  92 CALM      30.30F
MIDDLEBURY*    FAIR      24  14  66 S5        30.32S WCI  18
RUTLAND*       FAIR      13  11  92 SE7       30.33F WCI   3
SPRINGFIELD    FAIR       5   1  83 CALM      30.34F
HIGHGATE*      FAIR      30  18  60 S5        30.30S WCI  25
NEWPORT*       FAIR      19  15  86 SW7       30.27F WCI   9
BENNINGTON     FAIR      10   6  84 CALM      30.33S
LAKE EDEN*       N/A      1 N/A N/A CALM        N/A

_____LAKE CHAMPLAIN_____


CITY           SKY/WX    TMP DP  RH WIND       PRES   REMARKS

$$

NYZ007-026>031-035-052-083-087-231000-
_____NORTHERN NEW YORK_____


CITY           SKY/WX    TMP DP  RH WIND       PRES   REMARKS
PLATTSBURGH    FAIR      15  13  91 SW3       30.30S
SARANAC LAKE   FAIR       3  -1  83 CALM      30.25R
MASSENA        FAIR      30  15  53 SW9       30.31R WCI  22
OGDENSBURG*    FAIR      27  16  63 S6        30.27R WCI  20
POTSDAM*       MOCLDY    28  14  54 SW6       30.29R WCI  22
WATERTOWN      FAIR      31  14  49 S7        30.31S WCI  24
FT DRUM        FAIR      24  15  67 SE9       30.29S WCI  15
ALBANY         FAIR      15  10  80 CALM      30.38S
GLENS FALLS    FAIR       3  -2  79 CALM      30.36F

$$
NHZ002-005-011-231000-
_____NEW HAMPSHIRE_____


CITY           SKY/WX    TMP DP  RH WIND       PRES   REMARKS
LEBANON        FAIR       6   1  80 CALM      30.32F
KEENE          FAIR       4   1  88 CALM      30.37S
MT WASHINGTON  PTCLDY    21  -6  30 W56         N/A  WCI  -2
PLYMOUTH       FAIR       2  -1  87 CALM      30.33F
WHITEFIELD     FAIR      -1  -6  79 CALM      30.28F

$$

_____REGIONAL QUEBEC LOCATIONS_____


CITY           SKY/WX    TMP DP  RH WIND       PRES   REMARKS
MONTREAL       MOCLDY    27  18  69 S8        30.28R WCI  18
QUEBEC CITY    LGT SNOW  27  23  86 W12       30.21S WCI  16
SHERBROOKE     CLEAR     18  14  86 S3        30.24F

_____REGIONAL ONTARIO LOCATIONS_____


CITY           SKY/WX    TMP DP  RH WIND       PRES   REMARKS
OTTAWA         PTCLDY    27  19  74 S8        30.26R WCI  18

______KEY______
VSB  - VISIBILITY IN MILES
WCI  - WIND CHILL INDEX
HX   - HEAT INDEX
$$
NNNN




USA.gov is the U.S. government's official web portal to all federal, state and local government web resources and services.